Home   Weather   Dubbo   Past weeks

Flag for Australia Past Weather in Dubbo, New South Wales, Australia — Yesterday and Last 2 Weeks

Now
73 °F

Sunny.


Feels Like: 76 °F
Forecast: 50 / 83 °F
Wind: 14 mph from Southwest

Location: Dubbo Airport

Current Time: Dec 9, 2016 at 4:48:37 pm

Latest Report: Dec 9, 2016 at 4:00 pm


Visibility: N/A

Pressure: 29.98 "Hg

Humidity: 25%

Dew Point: 36 °F

Location of DubboLocation

Past Weather in Dubbo — Graph

°F

Dubbo Temperature Yesterday

Maximum temperature yesterday: 99 °F (at 4:00 pm)
Minimum temperature yesterday: 61 °F (at 10:00 pm)
Average temperature yesterday: 76 °F

High & Low Weather Summary for the Past Weeks

 TemperatureHumidityPressure
High100 °F (Dec 3, 4:00 pm)94% (Dec 6, 7:00 pm)30.07 "Hg (Dec 6, 7:00 pm)
Low46 °F (Nov 25, 6:30 am)10% (Nov 30, 6:00 pm)29.50 "Hg (Dec 8, 5:00 pm)
Average75 °F44%29.88 "Hg
* Reported Nov 24 3:00 pm — Dec 9 3:00 pm, Dubbo, Weather by CustomWeather, © 2016

Note: Actual official high and low records may vary slightly from our data, if they occured in-between our weather recording intervals... More about our weather records

Advertising

Dubbo Weather History for the Previous 24 Hours

Scroll right to see more
 ConditionsComfort  
Time TempWeatherWind HumidityBarometerVisibility
3:00 pm
Fri, Dec 9
70 °FSunny.15 mph31%29.98 "HgN/A
2:30 pm73 °FSunny.16 mph29%29.98 "HgN/A
2:00 pm72 °FSunny.15 mph31%29.98 "HgN/A
1:30 pm70 °FSunny.16 mph33%29.98 "HgN/A
1:00 pm68 °FSunny.18 mph33%29.98 "HgN/A
12:00 pm66 °FScattered clouds.15 mph40%30.01 "HgN/A
11:30 am66 °FScattered clouds.18 mph46%30.01 "HgN/A
11:00 am66 °FPartly sunny.16 mph43%29.98 "HgN/A
10:30 am64 °FScattered clouds.18 mph46%29.98 "HgN/A
10:00 am64 °FBroken clouds.17 mph49%29.98 "HgN/A
9:30 am63 °FScattered clouds.15 mph56%29.98 "HgN/A
9:00 am61 °FScattered clouds.16 mph63%29.95 "HgN/A
8:30 am59 °FSunny.17 mph63%29.95 "HgN/A
8:00 am57 °FSunny.17 mph67%29.95 "HgN/A
7:00 am55 °FSunny.9 mph72%29.92 "HgN/A
6:30 am54 °FSunny.9 mph77%29.89 "HgN/A
6:00 am52 °FSunny.7 mph88%29.89 "HgN/A
5:30 am54 °FClear.8 mph82%29.86 "HgN/A
5:00 am54 °FClear.8 mph94%29.86 "HgN/A
4:30 am54 °FClear.8 mph94%29.83 "HgN/A
4:00 am55 °FClear.8 mph94%29.83 "HgN/A
3:30 am55 °FClear.8 mph94%29.83 "HgN/A
3:00 am55 °FClear.7 mph94%29.80 "HgN/A
2:30 am55 °FClear.8 mph94%29.80 "HgN/A
2:00 am57 °FClear.9 mph88%29.80 "HgN/A
1:30 am57 °FClear.9 mph94%29.80 "HgN/A
1:00 am59 °FPassing clouds.10 mph82%29.80 "HgN/A
12:30 am59 °FPassing clouds.12 mph77%29.80 "HgN/A
12:00 am61 °FMostly cloudy.7 mph72%29.77 "HgN/A
11:00 pm
Thu, Dec 8
61 °FOvercast.10 mph77%29.74 "HgN/A
10:00 pm61 °FPartly cloudy.20 mph83%29.71 "HgN/A
9:00 pm66 °FPartly cloudy.15 mph94%29.65 "HgN/A
8:00 pm73 °FBroken clouds.26 mph65%29.68 "HgN/A
7:00 pm81 °FScattered clouds.24 mph42%29.56 "HgN/A
6:00 pm93 °FPartly sunny.23 mph21%29.50 "HgN/A
5:00 pm97 °FScattered clouds.17 mph22%29.50 "HgN/A
4:00 pm99 °FScattered clouds.21 mph21%29.53 "HgN/A
Weather by CustomWeather, © 2016

See weather overviewHow to use our weather pages